Regional Weather Roundup
Issued by NWS

Home | Current Version | Previous Version | Graphics & Text | Print | Product List | Glossary On
Versions: 1 2 3 4 5 6 7 8 9 10 11 12 13 14 15 16 17 18 19 20 21 22 23 24 25 26 27
433
ASUS45 KBOU 211007
RWRCO

WEATHER ROUNDUP FOR COLORADO
NATIONAL WEATHER SERVICE DENVER/BOULDER CO
400 AM MDT THU MAY 21 2015

NOTE: "FAIR" INDICATES FEW OR NO CLOUDS BELOW 12000 FEET WITH NO
SIGNIFICANT WEATHER AND/OR OBSTRUCTIONS TO VISIBILITY.

COZ001>005-013-030-031-211100-
...NORTHWEST COLORADO...

CITY           SKY/WX    TMP DP  RH WIND       PRES   REMARKS
CRAIG          CLEAR     34  32  92 SW3       30.12S
HAYDEN         CLEAR     37  34  87 E9        30.12S
MEEKER         CLEAR     37  34  89 NE3       30.11S
MOUNT WERNER   NOT AVBL
STEAMBOAT SPGS CLEAR     36  33  90 CALM      30.14S
WALDEN         CLOUDY    32  30  93 CALM      30.20S VSB 1/4
$$

COZ006>008-011-211100-
...WEST CENTRAL VALLEYS...

CITY           SKY/WX    TMP DP  RH WIND       PRES   REMARKS
GRAND JUNCTION CLEAR     48  40  73 E5        30.00S
MONTROSE       MOCLDY    48  40  73 CALM      30.07S
EAGLE          CLEAR     37  36  93 SE3       30.18R
RIFLE          CLEAR     41  36  82 S5        30.08R
DELTA          MOCLDY    50  40  69 N3        30.04S
NUCLA          NOT AVBL
$$

COZ017>023-064>068-211100-
...SOUTHWEST COLORADO...

CITY           SKY/WX    TMP DP  RH WIND       PRES   REMARKS
DURANGO        CLOUDY    47  36  65 E7        30.13R
CORTEZ         CLEAR     48  40  73 W7        30.05S
PAGOSA SPRINGS CLOUDY    44  32  63 CALM      30.19S
TELLURIDE      MOCLDY    45  23  42 E3        30.23S
WOLF CREEK PAS NOT AVBL
$$

COZ009-010-012-014-032>034-037-058>063-211100-
...CENTRAL COLORADO...

CITY           SKY/WX    TMP DP  RH WIND       PRES   REMARKS
ASPEN          CLEAR     37  30  75 SE7       30.16R
BUENA VISTA    CLOUDY    40  37  91 E5        30.26S
COPPER MTN     PTCLDY    34  21  60 S21       30.34R WCI  22
BERTHOUD PASS  FAIR      28  19  69 W20G28    30.35S WCI  15
COTTONWOOD PAS CLOUDY    36  34  93 CALM      30.31R
GUNNISON       PTCLDY    36  28  75 CALM      30.22S
KREMMLING      CLEAR     32  30  93 CALM      30.21S
LEADVILLE      CLOUDY    33  30  88 SE5       30.28R WCI  29
SALIDA         CLOUDY    41  40  95 SE5       30.34S
SUNLIGHT       CLEAR     36  27  69 CALM      30.26F
WILKERSON PASS FOG       30  28  93 SW8       30.35S VSB 1   WCI  23
$$

COZ069>075-211100-
...SAN LUIS VALLEY/SANGRE DE CRISTO MOUNTAINS...

CITY           SKY/WX    TMP DP  RH WIND       PRES   REMARKS
ALAMOSA        MOCLDY    45  38  76 SE13      30.20R
LA VETA PASS   PTCLDY   N/A N/A N/A MISG      30.31S
SAGUACHE       MOCLDY    37  34  87 NW7       30.22S
$$

COZ035-036-038>040-211100-
...NORTHERN COLORADO FRONT RANGE...

CITY           SKY/WX    TMP DP  RH WIND       PRES   REMARKS
DENVER INTL AP CLOUDY    41  39  93 E8        30.23F
DMNS CITY PARK   N/A     41  38  89 N1        30.24S
AURORA         CLOUDY    40  40  99 NE2       30.24F
FRONT RANGE AP CLOUDY    43  41  93 E9        30.24F
ERIE MUNI ARPT CLOUDY    42  40  95 CALM      30.24F FOG
BOULDER MUN AP CLOUDY    41  41 100 CALM      30.24S FOG
CENTENNIAL     CLOUDY    40  38  93 CALM      30.23S
BROOMFIELD     CLOUDY    41  41 100 CALM      30.24F FOG
FORT COLLINS   CLOUDY    41  39  93 SE7       30.26S
LONGMONT       LGT RAIN  44  42  95 CALM      30.27S
$$

COZ041-046-047-076>085-087-088-211100-
...PIKES PEAK/PALMER DIVIDE AND SOUTHERN FOOTHILLS...

CITY           SKY/WX    TMP DP  RH WIND       PRES   REMARKS
COLO. SPRINGS  DRZL/FOG  39  39 100 S15       30.28R VSB 1/2
A. F. ACADEMY  CLOUDY    38  38 100 S8        30.26F FOG
ELLICOTT       NOT AVBL
FALCON         SNOW      36  36 100 S7        30.28F VSB<1/4
FORT CARSON    DRZL/FOG  39  39 100 SE9       30.27S VSB 1
LIMON          CLOUDY    38  37  97 SE9       30.28S
MONUMENT HILL    N/A     34  34 100 MISG      30.23F
TRINIDAD       CLOUDY    47  44  90 N3        30.22S
$$

COZ042>045-048>051-090-091-211100-
...NORTHEAST COLORADO...

CITY           SKY/WX    TMP DP  RH WIND       PRES   REMARKS
GREELEY ARPT   CLOUDY    41  37  87 SE10      30.26F
AKRON          CLOUDY    40  36  86 SE9       30.28F
BURLINGTON     CLOUDY    42  36  79 S5        30.30F
WRAY           CLOUDY    43  43 100 CALM      30.30S
STERLING       CLOUDY    43  37  81 S3        30.28F
HOLYOKE        NOT AVBL
FORT MORGAN    CLOUDY    41  36  81 SE7       30.28S
$$

COZ086-089-092>099-211100-
...SOUTHEAST COLORADO...

CITY           SKY/WX    TMP DP  RH WIND       PRES   REMARKS
PUEBLO         CLOUDY    42  41  96 E14       30.26S FOG
LA JUNTA       CLOUDY    44  41  89 E13       30.27S
LAMAR          CLOUDY    45  40  82 SE8       30.28S
SPRINGFIELD      N/A     40  40 100 SE10      30.27F
$$



USA.gov is the U.S. government's official web portal to all federal, state and local government web resources and services.